{"data":{"norad_id":57906,"intl_designator":"2023-146R","name":"STARLINK-30428","alt_names":[],"object_type":"PAYLOAD","status":"ACTIVE","operator":null,"country":"US","launch_date":"2023-09-20","launch_site_code":"AFETR","launch_vehicle":null,"mission":null,"orbit_class":"UNKNOWN","rcs_meters":null,"size_class":null,"mass_kg":null,"dimensions":null,"purposes":["comms"],"wikipedia_slug":null,"has_3d_model":false,"image_url":null,"decayed_at":null,"tle_current":{"epoch":"2026-05-24T16:10:19.560000Z","epoch_age_seconds":97103,"freshness":"FRESH","line1":"1 57906U 23146R   26144.67383750  .00001081  00000+0  48794-4 0  9994","line2":"2 57906  43.0035 245.3690 0001587 264.4756  95.5915 15.27578518147610","mean_motion":15.27578518,"eccentricity":0.0001587,"inclination_deg":43.0035,"raan_deg":245.369,"arg_perigee_deg":264.4756,"mean_anomaly_deg":95.5915,"bstar":4.8794e-5,"rev_number":14761,"period_min":94.266840167754,"perigee_km":481.96466274669,"apogee_km":484.14240462208,"semimajor_km":6861.1905336844,"source":"CELESTRAK","updated_at":"2026-05-25T13:38:18.454743Z"}}}